Flag for U.S.A. Weather past 2 weeks in Howell, Michigan, U.S.A.

Now
31 °F

Sunny.


Feels Like: 24 °F
Forecast: 12 / 35 °F
Wind: 7 mph from Northwest

Location: Livingston County Airport

Current Time: Mar 28, 2015 at 2:55:47 PM

Latest Report: Mar 28, 2015 at 2:35 PM


Visibility: 10 mi

Pressure: 30.26 "Hg

Humidity: 38%

Dew point: 8 °F

Location of HowellLocation

Historic Weather in Howell — Graph

°F

Howell temperature yesterday

Maximum temperature yesterday: 30 °F (at 12:35 AM)
Minimum temperature yesterday: 18 °F (at 11:15 PM)
Average temperature yesterday: 23 °F

Past Weeks' High & Low Weather Summary

 TemperatureHumidityPressure
High66 °F (Mar 16, 3:35 PM)100% (Mar 14, 3:55 AM)30.34 "Hg (Mar 14, 3:55 AM)
Low13 °F (Mar 28, 3:55 AM)24% (Mar 24, 3:35 PM)29.72 "Hg (Mar 16, 7:15 PM)
Average35 °F61%30.09 "Hg
* Reported Mar 13 1:14 PM — Mar 28 1:35 PM, Howell, Weather by CustomWeather, © 2015

Note: Actual official high and low records may vary slightly from our data, if they occured in-between our weather recording intervals... More about our weather records

Advertising

Howell weather history for previous 24 hours

 ConditionsComfort  
Time TempWeatherWind HumidityBarometerVisibility
1:35 PM
Sat, Mar 28
29 °FSunny.5 mph42%30.27 "Hg10 mi
1:15 PM29 °FSunny.8 mph42%30.27 "Hg10 mi
12:55 PM29 °FSunny.9 mph43%30.28 "Hg10 mi
12:35 PM27 °FSunny.10 mph43%30.28 "Hg10 mi
12:15 PM28 °FScattered clouds.9 mph46%30.28 "Hg10 mi
11:55 AM26 °FScattered clouds.5 mph48%30.28 "Hg10 mi
11:35 AM26 °FScattered clouds.8 mph50%30.28 "Hg10 mi
11:14 AM25 °FScattered clouds.7 mph51%30.28 "Hg10 mi
10:55 AM24 °FSunny.6 mph54%30.28 "Hg10 mi
10:35 AM23 °FSunny.7 mph59%30.27 "Hg10 mi
10:14 AM23 °FSunny.7 mph61%30.27 "Hg10 mi
9:55 AM21 °FSunny.5 mph65%30.27 "Hg10 mi
9:35 AM20 °FSunny.6 mph66%30.26 "Hg10 mi
9:14 AM18 °FSunny.6 mph68%30.26 "Hg10 mi
8:55 AM17 °FSunny.5 mph68%30.25 "Hg10 mi
8:35 AM16 °FSunny.6 mph70%30.25 "Hg10 mi
8:14 AM15 °FClear.5 mph71%30.24 "Hg10 mi
7:55 AM14 °FClear.6 mph72%30.23 "Hg10 mi
7:35 AM14 °FClear.6 mph72%30.22 "Hg10 mi
7:14 AM14 °FClear.6 mph73%30.21 "Hg10 mi
6:55 AM14 °FClear.7 mph74%30.20 "Hg10 mi
6:35 AM14 °FClear.7 mph75%30.20 "Hg10 mi
6:14 AM14 °FClear.6 mph77%30.19 "Hg10 mi
5:55 AM14 °FClear.6 mph79%30.18 "Hg10 mi
5:35 AM14 °FClear.6 mph78%30.17 "Hg10 mi
5:15 AM14 °FClear.6 mph78%30.17 "Hg10 mi
4:55 AM13 °FClear.5 mph78%30.17 "Hg10 mi
4:35 AM13 °FClear.5 mph78%30.17 "Hg10 mi
4:15 AM13 °FClear.3 mph79%30.16 "Hg10 mi
3:55 AM13 °FClear.5 mph79%30.16 "Hg10 mi
3:35 AM13 °FClear.5 mph77%30.16 "Hg10 mi
3:15 AM13 °FClear.6 mph77%30.17 "Hg10 mi
2:55 AM13 °FClear.6 mph78%30.17 "Hg10 mi
2:35 AM13 °FClear.5 mph79%30.16 "Hg10 mi
2:15 AM13 °FClear.5 mph76%30.16 "Hg10 mi
1:55 AM14 °FClear.3 mph74%30.16 "Hg10 mi
1:35 AM15 °FClear.No wind72%30.17 "Hg10 mi
1:15 AM15 °FClear.No wind71%30.17 "Hg10 mi
12:55 AM15 °FClear.No wind70%30.16 "Hg10 mi
12:34 AM15 °FClear.5 mph69%30.16 "Hg10 mi
11:15 PM
Fri, Mar 27
18 °FClear.9 mph68%30.14 "Hg10 mi
10:55 PM18 °FClear.5 mph65%30.13 "Hg10 mi
10:34 PM19 °FClear.6 mph63%30.12 "Hg10 mi
10:15 PM19 °FPassing clouds.No wind63%30.11 "Hg10 mi
9:55 PM20 °FPassing clouds.6 mph60%30.10 "Hg10 mi
9:34 PM21 °FPassing clouds.6 mph55%30.10 "Hg10 mi
9:15 PM21 °FPassing clouds.3 mph54%30.09 "Hg10 mi
8:55 PM21 °FSunny.3 mph52%30.08 "Hg10 mi
8:34 PM22 °FSunny.3 mph52%30.07 "Hg10 mi
8:15 PM22 °FSunny.No wind49%30.06 "Hg10 mi
7:55 PM22 °FSunny.5 mph48%30.06 "Hg10 mi
7:35 PM23 °FSunny.6 mph47%30.05 "Hg10 mi
7:15 PM24 °FScattered clouds.6 mph45%30.05 "Hg10 mi
6:55 PM24 °FBroken clouds.6 mph39%30.04 "Hg10 mi
6:35 PM25 °FMore clouds than sun.8 mph40%30.04 "Hg10 mi
6:15 PM25 °FMostly cloudy.5 mph45%30.03 "Hg10 mi
5:35 PM25 °FBroken clouds.6 mph48%30.03 "Hg10 mi
5:15 PM24 °FBroken clouds.8 mph59%30.03 "Hg10 mi
4:55 PM24 °FCloudy.3 mph59%30.03 "Hg7 mi
4:35 PM24 °FCloudy.8 mph59%30.03 "Hg10 mi
4:15 PM26 °FCloudy.8 mph51%30.03 "Hg10 mi
3:55 PM24 °FMostly cloudy.8 mph56%30.03 "Hg10 mi
3:35 PM24 °FCloudy.6 mph71%30.03 "Hg10 mi
3:15 PM23 °FLight snow. Cloudy.10 mph78%30.03 "Hg4 mi
2:54 PM22 °FLight snow. Overcast.7 mph77%30.03 "Hg2 mi
2:35 PM22 °FLight snow. Mostly cloudy.8 mph72%30.04 "Hg2 mi
2:15 PM23 °FLight snow. Cloudy.8 mph67%30.03 "Hg4 mi
Weather by CustomWeather, © 2015

See weather overviewHow to use our weather pages